| time (UTC) | temp C | wind direction | speed KPH | gust KPH | rain 1hr cm | rain 24hr cm | rain mn cm | humidity % | barometer mb |
| 20260508131703 | 13 | 174 | 0.0 | 4.8 | 0.00 | 0.00 | 0.00 | 73 | 1017.4 |
| 20260508131203 | 12 | 233 | 0.0 | 3.2 | 0.00 | 0.00 | 0.00 | 74 | 1017.4 |
| 20260508130703 | 12 | 233 | 0.0 | 3.2 | 0.00 | 0.00 | 0.00 | 75 | 1017.4 |
| 20260508130203 | 12 | 117 | 1.6 | 3.2 | 0.00 | 0.00 | 0.00 | 77 | 1017.5 |
| 20260508124703 | 11 | 45 | 0.0 | 0.0 | 0.00 | 0.00 | 0.00 | 80 | 1017.5 |
| 20260508124204 | 11 | 45 | 0.0 | 0.0 | 0.00 | 0.00 | 0.00 | 81 | 1017.5 |
| 20260508123704 | 10 | 45 | 0.0 | 0.0 | 0.00 | 0.00 | 0.00 | 83 | 1017.5 |
| 20260508123203 | 10 | 45 | 0.0 | 0.0 | 0.00 | 0.00 | 0.00 | 84 | 1017.5 |
| 20260508121703 | 9 | 45 | 0.0 | 0.0 | 0.00 | 0.00 | 0.00 | 90 | 1017.4 |
| 20260508121203 | 8 | 45 | 0.0 | 0.0 | 0.00 | 0.00 | 0.00 | 91 | 1017.3 |
| 20260508120703 | 8 | 45 | 0.0 | 0.0 | 0.00 | 0.00 | 0.00 | 92 | 1017.3 |
| 20260508120203 | 7 | 45 | 0.0 | 0.0 | 0.00 | 0.00 | 0.00 | 94 | 1017.3 |
| 20260508114703 | 6 | 45 | 0.0 | 0.0 | 0.00 | 0.00 | 0.00 | 97 | 1017.3 |
| 20260508114203 | 5 | 45 | 0.0 | 0.0 | 0.00 | 0.00 | 0.00 | 98 | 1017.3 |
| 20260508113703 | 5 | 45 | 0.0 | 0.0 | 0.00 | 0.00 | 0.00 | 98 | 1017.3 |
| 20260508113203 | 4 | 45 | 0.0 | 0.0 | 0.00 | 0.00 | 0.00 | 98 | 1017.3 |
| 20260508111703 | 3 | 45 | 0.0 | 0.0 | 0.00 | 0.00 | 0.00 | 98 | 1017.1 |
| 20260508111203 | 3 | 45 | 0.0 | 0.0 | 0.00 | 0.00 | 0.00 | 98 | 1017.0 |
| 20260508110703 | 2 | 45 | 0.0 | 0.0 | 0.00 | 0.00 | 0.00 | 98 | 1017.0 |
| 20260508110203 | 2 | 45 | 0.0 | 0.0 | 0.00 | 0.00 | 0.00 | 98 | 1017.0 |
| 20260508104703 | 2 | 45 | 0.0 | 0.0 | 0.00 | 0.00 | 0.00 | 98 | 1016.9 |
| 20260508104204 | 2 | 45 | 0.0 | 0.0 | 0.00 | 0.00 | 0.00 | 98 | 1016.9 |
| 20260508103703 | 2 | 45 | 0.0 | 0.0 | 0.00 | 0.00 | 0.00 | 98 | 1016.9 |
| 20260508101704 | 2 | 45 | 0.0 | 0.0 | 0.00 | 0.00 | 0.00 | 98 | 1016.7 |
| 20260508100703 | 2 | 45 | 0.0 | 0.0 | 0.00 | 0.00 | 0.00 | 98 | 1016.6 |
| 20260508100203 | 2 | 45 | 0.0 | 0.0 | 0.00 | 0.00 | 0.00 | 98 | 1016.6 |
| 20260508094702 | 2 | 45 | 0.0 | 0.0 | 0.00 | 0.00 | 0.00 | 97 | 1016.5 |
| 20260508094203 | 2 | 45 | 0.0 | 0.0 | 0.00 | 0.00 | 0.00 | 97 | 1016.4 |
| 20260508093704 | 2 | 45 | 0.0 | 0.0 | 0.00 | 0.00 | 0.00 | 97 | 1016.4 |
| 20260508093204 | 2 | 45 | 0.0 | 0.0 | 0.00 | 0.00 | 0.00 | 97 | 1016.5 |
| 20260508091703 | 3 | 45 | 0.0 | 0.0 | 0.00 | 0.00 | 0.00 | 97 | 1016.5 |
| 20260508091204 | 3 | 45 | 0.0 | 0.0 | 0.00 | 0.00 | 0.00 | 97 | 1016.5 |
| 20260508090703 | 3 | 45 | 0.0 | 0.0 | 0.00 | 0.00 | 0.00 | 98 | 1016.4 |
| 20260508090203 | 3 | 45 | 0.0 | 0.0 | 0.00 | 0.00 | 0.00 | 97 | 1016.3 |
| 20260508084703 | 3 | 45 | 0.0 | 0.0 | 0.00 | 0.00 | 0.00 | 98 | 1016.3 |
| 20260508084203 | 3 | 45 | 0.0 | 0.0 | 0.00 | 0.00 | 0.00 | 97 | 1016.2 |
| 20260508083703 | 3 | 45 | 0.0 | 0.0 | 0.00 | 0.00 | 0.00 | 97 | 1016.2 |
| 20260508083204 | 3 | 45 | 0.0 | 0.0 | 0.00 | 0.00 | 0.00 | 97 | 1016.3 |
| 20260508081703 | 3 | 45 | 0.0 | 1.6 | 0.00 | 0.00 | 0.00 | 97 | 1016.2 |
| 20260508081203 | 3 | 47 | 0.0 | 1.6 | 0.00 | 0.00 | 0.00 | 97 | 1016.1 |
| 20260508080703 | 3 | 48 | 0.0 | 1.6 | 0.00 | 0.00 | 0.00 | 97 | 1016.1 |
| 20260508080203 | 3 | 38 | 0.0 | 0.0 | 0.00 | 0.00 | 0.00 | 97 | 1016.2 |
| 20260508074703 | 3 | 47 | 0.0 | 0.0 | 0.00 | 0.00 | 0.00 | 97 | 1016.0 |
| 20260508073704 | 3 | 47 | 0.0 | 0.0 | 0.00 | 0.00 | 0.00 | 97 | 1016.0 |
| 20260508073203 | 3 | 47 | 0.0 | 0.0 | 0.00 | 0.00 | 0.00 | 97 | 1016.0 |
| 20260508071704 | 3 | 47 | 0.0 | 3.2 | 0.00 | 0.00 | 0.00 | 97 | 1016.1 |
| 20260508070703 | 4 | 39 | 1.6 | 3.2 | 0.00 | 0.00 | 0.00 | 97 | 1016.1 |
| 20260508070203 | 4 | 40 | 1.6 | 3.2 | 0.00 | 0.00 | 0.00 | 97 | 1016.0 |
| 20260508064704 | 4 | 296 | 0.0 | 0.0 | 0.00 | 0.00 | 0.00 | 97 | 1016.1 |
| 20260508064203 | 4 | 296 | 0.0 | 0.0 | 0.00 | 0.00 | 0.00 | 96 | 1016.1 |
| 20260508063703 | 4 | 296 | 0.0 | 0.0 | 0.00 | 0.00 | 0.00 | 96 | 1016.1 |
| 20260508063203 | 4 | 296 | 0.0 | 0.0 | 0.00 | 0.00 | 0.00 | 96 | 1016.1 |
| 20260508061203 | 4 | 296 | 0.0 | 0.0 | 0.00 | 0.00 | 0.00 | 96 | 1016.3 |
| 20260508060703 | 4 | 296 | 0.0 | 0.0 | 0.00 | 0.00 | 0.00 | 96 | 1016.3 |
| 20260508060203 | 4 | 296 | 0.0 | 0.0 | 0.00 | 0.00 | 0.00 | 96 | 1016.3 |
| 20260508054703 | 5 | 296 | 0.0 | 0.0 | 0.00 | 0.00 | 0.00 | 96 | 1016.1 |
| 20260508053703 | 5 | 296 | 0.0 | 0.0 | 0.00 | 0.00 | 0.00 | 96 | 1016.1 |
| 20260508051704 | 5 | 296 | 0.0 | 0.0 | 0.00 | 0.00 | 0.00 | 96 | 1016.1 |
| 20260508051204 | 5 | 296 | 0.0 | 0.0 | 0.00 | 0.00 | 0.00 | 96 | 1016.1 |
| 20260508050703 | 5 | 296 | 0.0 | 0.0 | 0.00 | 0.00 | 0.00 | 95 | 1016.1 |
| 20260508050203 | 5 | 296 | 0.0 | 0.0 | 0.00 | 0.00 | 0.00 | 96 | 1016.3 |
| 20260508044203 | 5 | 296 | 0.0 | 0.0 | 0.00 | 0.00 | 0.00 | 96 | 1016.2 |
| 20260508043203 | 5 | 296 | 0.0 | 0.0 | 0.00 | 0.00 | 0.00 | 95 | 1016.1 |
| 20260508041203 | 5 | 296 | 0.0 | 0.0 | 0.00 | 0.00 | 0.00 | 92 | 1016.1 |
| 20260508040203 | 6 | 296 | 0.0 | 0.0 | 0.00 | 0.00 | 0.00 | 91 | 1016.0 |
| 20260508034203 | 6 | 296 | 0.0 | 0.0 | 0.00 | 0.00 | 0.00 | 89 | 1016.1 |
| 20260508033703 | 6 | 296 | 0.0 | 0.0 | 0.00 | 0.00 | 0.00 | 88 | 1016.0 |
| 20260508033203 | 6 | 296 | 0.0 | 0.0 | 0.00 | 0.00 | 0.00 | 88 | 1016.0 |
| 20260508031703 | 7 | 296 | 0.0 | 0.0 | 0.00 | 0.00 | 0.00 | 87 | 1016.0 |
| 20260508030704 | 7 | 296 | 0.0 | 0.0 | 0.00 | 0.00 | 0.00 | 86 | 1015.9 |
| 20260508030203 | 7 | 296 | 0.0 | 0.0 | 0.00 | 0.00 | 0.00 | 86 | 1015.9 |
| 20260508024703 | 7 | 296 | 0.0 | 0.0 | 0.00 | 0.00 | 0.00 | 84 | 1015.7 |
| 20260508024204 | 7 | 296 | 0.0 | 0.0 | 0.00 | 0.00 | 0.00 | 84 | 1015.6 |
| 20260508023704 | 7 | 296 | 0.0 | 0.0 | 0.00 | 0.00 | 0.00 | 83 | 1015.5 |
| 20260508023203 | 7 | 296 | 0.0 | 0.0 | 0.00 | 0.00 | 0.00 | 82 | 1015.5 |
| 20260508021703 | 8 | 296 | 0.0 | 0.0 | 0.00 | 0.00 | 0.00 | 79 | 1015.3 |
| 20260508021203 | 8 | 296 | 0.0 | 0.0 | 0.00 | 0.00 | 0.00 | 79 | 1015.2 |
| 20260508020704 | 8 | 296 | 0.0 | 0.0 | 0.00 | 0.00 | 0.00 | 78 | 1015.1 |
| 20260508020203 | 8 | 296 | 0.0 | 0.0 | 0.00 | 0.00 | 0.00 | 76 | 1015.1 |
| 20260508013703 | 10 | 296 | 0.0 | 0.0 | 0.00 | 0.00 | 0.00 | 72 | 1014.7 |
| 20260508013203 | 10 | 296 | 0.0 | 0.0 | 0.00 | 0.00 | 0.00 | 71 | 1014.7 |
| 20260508011703 | 11 | 296 | 0.0 | 0.0 | 0.00 | 0.00 | 0.00 | 67 | 1014.4 |
| 20260508011203 | 11 | 296 | 0.0 | 0.0 | 0.00 | 0.00 | 0.00 | 66 | 1014.3 |
| 20260508010703 | 11 | 296 | 0.0 | 0.0 | 0.00 | 0.00 | 0.00 | 66 | 1014.3 |
| 20260508010203 | 12 | 296 | 0.0 | 0.0 | 0.00 | 0.00 | 0.00 | 64 | 1014.3 |
| 20260508004703 | 13 | 296 | 0.0 | 0.0 | 0.00 | 0.00 | 0.00 | 57 | 1014.1 |
| 20260508004204 | 14 | 296 | 0.0 | 4.8 | 0.00 | 0.00 | 0.00 | 52 | 1014.1 |
| 20260508003703 | 14 | 296 | 0.0 | 8.0 | 0.00 | 0.00 | 0.00 | 50 | 1014.1 |
| 20260508003203 | 15 | 312 | 1.6 | 8.0 | 0.00 | 0.00 | 0.00 | 47 | 1014.0 |
| 20260508001703 | 16 | 337 | 6.4 | 12.9 | 0.00 | 0.00 | 0.00 | 42 | 1014.0 |
| 20260508001203 | 16 | 307 | 6.4 | 12.9 | 0.00 | 0.00 | 0.00 | 42 | 1013.8 |
| 20260507234703 | 17 | 305 | 8.0 | 19.3 | 0.00 | 0.00 | 0.00 | 38 | 1013.5 |
| 20260507234203 | 18 | 309 | 4.8 | 19.3 | 0.00 | 0.00 | 0.00 | 39 | 1013.5 |
| 20260507233204 | 18 | 315 | 8.0 | 14.5 | 0.00 | 0.00 | 0.00 | 37 | 1013.3 |
| 20260507231203 | 18 | 326 | 8.0 | 20.9 | 0.00 | 0.00 | 0.00 | 39 | 1013.2 |
| 20260507230703 | 18 | 296 | 11.3 | 20.9 | 0.00 | 0.00 | 0.00 | 37 | 1013.2 |
| 20260507224704 | 20 | 287 | 11.3 | 19.3 | 0.00 | 0.00 | 0.00 | 37 | 1013.0 |
| 20260507224203 | 20 | 292 | 6.4 | 19.3 | 0.00 | 0.00 | 0.00 | 38 | 1013.1 |
| 20260507223704 | 19 | 304 | 9.7 | 16.1 | 0.00 | 0.00 | 0.00 | 39 | 1013.0 |
| 20260507223203 | 18 | 307 | 9.7 | 16.1 | 0.00 | 0.00 | 0.00 | 41 | 1012.9 |
| 20260507221703 | 19 | 301 | 8.0 | 27.4 | 0.00 | 0.00 | 0.00 | 41 | 1012.9 |
| 20260507221203 | 20 | 280 | 17.7 | 27.4 | 0.00 | 0.00 | 0.00 | 38 | 1012.8 |
| 20260507220703 | 20 | 291 | 11.3 | 25.7 | 0.00 | 0.00 | 0.00 | 38 | 1012.8 |
| 20260507220203 | 20 | 312 | 11.3 | 25.7 | 0.00 | 0.00 | 0.00 | 38 | 1012.7 |
| 20260507214203 | 20 | 317 | 9.7 | 25.7 | 0.00 | 0.00 | 0.00 | 40 | 1012.5 |
| 20260507213703 | 20 | 274 | 14.5 | 25.7 | 0.00 | 0.00 | 0.00 | 40 | 1012.5 |
| 20260507213204 | 20 | 287 | 8.0 | 20.9 | 0.00 | 0.00 | 0.00 | 40 | 1012.4 |
| 20260507211704 | 18 | 319 | 11.3 | 20.9 | 0.00 | 0.00 | 0.00 | 43 | 1012.4 |
| 20260507211204 | 19 | 0 | 0.0 | 0.0 | 0.00 | 0.00 | 0.00 | 43 | 1012.4 |
| 20260507210703 | 19 | 280 | 0.0 | 12.9 | 0.00 | 0.00 | 0.00 | 43 | 1012.2 |
| 20260507210204 | 19 | 280 | 0.0 | 12.9 | 0.00 | 0.00 | 0.00 | 42 | 1012.2 |
| 20260507204706 | 18 | 280 | 0.0 | 20.9 | 0.00 | 0.00 | 0.00 | 41 | 1012.2 |
| 20260507204203 | 18 | 317 | 4.8 | 20.9 | 0.00 | 0.00 | 0.00 | 44 | 1012.2 |
| 20260507203703 | 19 | 282 | 9.7 | 22.5 | 0.00 | 0.00 | 0.00 | 45 | 1012.2 |
| 20260507203203 | 18 | 312 | 11.3 | 22.5 | 0.00 | 0.00 | 0.00 | 44 | 1012.2 |
| 20260507201703 | 18 | 297 | 11.3 | 19.3 | 0.00 | 0.00 | 0.00 | 44 | 1012.3 |
| 20260507200203 | 20 | 298 | 9.7 | 27.4 | 0.00 | 0.00 | 0.00 | 42 | 1012.3 |
| 20260507194203 | 20 | 240 | 8.0 | 22.5 | 0.00 | 0.00 | 0.00 | 46 | 1012.4 |
| 20260507193703 | 19 | 216 | 8.0 | 24.1 | 0.00 | 0.00 | 0.00 | 45 | 1012.5 |
| 20260507193205 | 19 | 288 | 14.5 | 24.1 | 0.00 | 0.00 | 0.00 | 44 | 1012.6 |
| 20260507191204 | 18 | 297 | 11.3 | 20.9 | 0.00 | 0.00 | 0.00 | 48 | 1012.8 |
| 20260507190704 | 18 | 278 | 11.3 | 20.9 | 0.00 | 0.00 | 0.00 | 47 | 1012.9 |
| 20260507190203 | 18 | 282 | 0.0 | 22.5 | 0.00 | 0.00 | 0.00 | 48 | 1012.8 |
| 20260507184704 | 17 | 303 | 8.0 | 22.5 | 0.00 | 0.00 | 0.00 | 51 | 1013.0 |
| 20260507184203 | 17 | 290 | 11.3 | 16.1 | 0.00 | 0.00 | 0.00 | 50 | 1013.1 |
| 20260507183703 | 17 | 285 | 4.8 | 20.9 | 0.00 | 0.00 | 0.00 | 51 | 1013.2 |
| 20260507183204 | 17 | 284 | 9.7 | 20.9 | 0.00 | 0.00 | 0.00 | 52 | 1013.2 |
| 20260507181703 | 18 | 294 | 11.3 | 19.3 | 0.00 | 0.00 | 0.00 | 50 | 1013.0 |
| 20260507180704 | 17 | 268 | 9.7 | 19.3 | 0.00 | 0.00 | 0.00 | 51 | 1013.2 |
| 20260507174703 | 16 | 310 | 11.3 | 20.9 | 0.00 | 0.00 | 0.00 | 54 | 1013.4 |
| 20260507174203 | 16 | 291 | 11.3 | 20.9 | 0.00 | 0.00 | 0.00 | 53 | 1013.4 |
| 20260507173703 | 16 | 311 | 11.3 | 19.3 | 0.00 | 0.00 | 0.00 | 54 | 1013.3 |
| 20260507173203 | 16 | 312 | 11.3 | 19.3 | 0.00 | 0.00 | 0.00 | 53 | 1013.3 |
| 20260507171703 | 17 | 298 | 11.3 | 20.9 | 0.00 | 0.00 | 0.00 | 54 | 1013.7 |
| 20260507171203 | 17 | 316 | 11.3 | 20.9 | 0.00 | 0.00 | 0.00 | 54 | 1013.7 |
| 20260507170704 | 17 | 302 | 11.3 | 19.3 | 0.00 | 0.00 | 0.00 | 53 | 1013.7 |
| 20260507170203 | 17 | 306 | 8.0 | 19.3 | 0.00 | 0.00 | 0.00 | 55 | 1013.7 |
| 20260507164703 | 17 | 243 | 0.0 | 12.9 | 0.00 | 0.00 | 0.00 | 54 | 1013.8 |
| 20260507164203 | 17 | 243 | 1.6 | 12.9 | 0.00 | 0.00 | 0.00 | 55 | 1013.9 |
| 20260507163704 | 16 | 297 | 4.8 | 12.9 | 0.00 | 0.00 | 0.00 | 57 | 1013.9 |
| 20260507163204 | 16 | 284 | 3.2 | 12.9 | 0.00 | 0.00 | 0.00 | 55 | 1013.9 |
| 20260507161704 | 17 | 274 | 0.0 | 11.3 | 0.00 | 0.00 | 0.00 | 56 | 1014.1 |
| 20260507161204 | 17 | 274 | 0.0 | 11.3 | 0.00 | 0.00 | 0.00 | 52 | 1014.1 |
| 20260507160204 | 16 | 27 | 3.2 | 11.3 | 0.00 | 0.00 | 0.00 | 54 | 1014.2 |
| 20260507154203 | 16 | 313 | 9.7 | 16.1 | 0.00 | 0.00 | 0.00 | 56 | 1014.3 |
| 20260507153703 | 16 | 278 | 4.8 | 14.5 | 0.00 | 0.00 | 0.00 | 57 | 1014.3 |
| 20260507153203 | 16 | 283 | 3.2 | 14.5 | 0.00 | 0.00 | 0.00 | 59 | 1014.3 |
| 20260507151704 | 16 | 329 | 3.2 | 8.0 | 0.00 | 0.00 | 0.00 | 59 | 1014.2 |
| 20260507151204 | 15 | 332 | 3.2 | 12.9 | 0.00 | 0.00 | 0.00 | 60 | 1014.3 |
| 20260507150703 | 15 | 249 | 8.0 | 12.9 | 0.00 | 0.00 | 0.00 | 59 | 1014.3 |
| 20260507150203 | 15 | 316 | 4.8 | 12.9 | 0.00 | 0.00 | 0.00 | 60 | 1014.4 |
| 20260507144203 | 17 | 32 | 0.0 | 9.7 | 0.00 | 0.00 | 0.00 | 56 | 1014.3 |
| 20260507143704 | 16 | 32 | 3.2 | 9.7 | 0.00 | 0.00 | 0.00 | 57 | 1014.4 |
| 20260507143204 | 16 | 36 | 4.8 | 11.3 | 0.00 | 0.00 | 0.00 | 59 | 1014.5 |
| 20260507141703 | 15 | 350 | 6.4 | 11.3 | 0.00 | 0.00 | 0.00 | 61 | 1014.4 |
| 20260507141203 | 15 | 181 | 1.6 | 9.7 | 0.00 | 0.00 | 0.00 | 65 | 1014.6 |
| 20260507140703 | 15 | 265 | 3.2 | 9.7 | 0.00 | 0.00 | 0.00 | 65 | 1014.7 |
| 20260507140203 | 16 | 264 | 1.6 | 4.8 | 0.00 | 0.00 | 0.00 | 65 | 1014.7 |
| 20260507134704 | 14 | 7 | 0.0 | 0.0 | 0.00 | 0.00 | 0.00 | 71 | 1014.9 |
| 20260507133203 | 13 | 7 | 0.0 | 0.0 | 0.00 | 0.00 | 0.00 | 72 | 1015.1 |